Change the Weather History Date:

Thursday, August 15, 2013

  Actual Average (KINT) Record (KINT)
Temperature  
Mean Temperature 64 °F -  
Max Temperature 73 °F 84 °F 97 °F (2007)
Min Temperature 56 °F 66 °F 52 °F (1967)
Growing Degree Days 14 (Base 50)    
Moisture  
Dew Point 56 °F    
Average Humidity 75    
Maximum Humidity 91    
Minimum Humidity 55    
Precipitation  
Precipitation 0.00 in - - ()
Sea Level Pressure  
Sea Level Pressure 30.21 in    
Wind  
Wind Speed 2 mph (East)    
Max Wind Speed 12 mph    
Max Gust Speed -    
Visibility 10 miles    
Events      
Averages and records for this station are not official NWS values.
T = Trace of Precipitation, MM = Missing Value Source: NWS Daily Summary

Daily Weather History Graph

Daily Weather History Graph

Search for Another Location

Airport or City:

Trip Planner

Search our weather history database for the weather conditions in past years. The results will help you decide how hot, cold, wet, or windy it might be!

Date:

Astronomy

Aug. 15, 2013 Rise Set
Actual Time 6:40 AM EDT 8:12 PM EDT
Civil Twilight 6:12 AM EDT 8:39 PM EDT
Nautical Twilight 5:39 AM EDT 9:12 PM EDT
Astronomical Twilight 5:05 AM EDT 9:47 PM EDT
Moon 3:25 PM EDT (8/15) 12:50 AM EDT (8/15)
Length of Visible Light 14h 27m
Length of Day
13h 32m
Waxing Gibbous, 64% of the Moon is Illuminated
Aug 15
Waxing Gibbous
Aug 20
Full
Aug 28
Last Quarter
Sep 5
New
Sep 12
First Quarter

Hourly Weather History & Observations

Time (EDT) Temp. Dew Point Humidity Pressure Visibility Wind Dir Wind Speed Gust Speed Precip Events Conditions
12:15 AM 61.2 °F 54.9 °F 80% 30.19 in 10.0 mi Calm Calm - N/A   Clear
12:35 AM 60.6 °F 54.7 °F 81% 30.19 in 10.0 mi Calm Calm - N/A   Clear
12:55 AM 59.9 °F 54.9 °F 83% 30.19 in 10.0 mi Calm Calm - N/A   Clear
1:15 AM 59.0 °F 55.0 °F 87% 30.19 in 10.0 mi Calm Calm - N/A   Clear
1:35 AM 59.0 °F 55.4 °F 88% 30.19 in 10.0 mi Calm Calm - N/A   Clear
1:55 AM 59.0 °F 54.7 °F 86% 30.19 in 10.0 mi Calm Calm - N/A   Clear
2:15 AM 57.6 °F 54.5 °F 90% 30.19 in 10.0 mi Calm Calm - N/A   Clear
2:35 AM 57.7 °F 54.5 °F 89% 30.19 in 10.0 mi Calm Calm - N/A   Clear
2:55 AM 57.9 °F 54.5 °F 88% 30.18 in 10.0 mi Calm Calm - N/A   Clear
3:15 AM 57.9 °F 54.3 °F 88% 30.18 in 10.0 mi Calm Calm - N/A   Clear
3:35 AM 57.2 °F 54.0 °F 89% 30.18 in 10.0 mi Calm Calm - N/A   Clear
3:55 AM 57.2 °F 54.5 °F 91% 30.18 in 10.0 mi Calm Calm - N/A   Clear
4:15 AM 56.8 °F 54.0 °F 90% 30.18 in 10.0 mi Calm Calm - N/A   Scattered Clouds
4:35 AM 56.8 °F 54.0 °F 90% 30.19 in 10.0 mi Calm Calm - N/A   Scattered Clouds
4:55 AM 56.7 °F 53.8 °F 90% 30.19 in 10.0 mi Calm Calm - N/A   Mostly Cloudy
5:15 AM 57.2 °F 54.5 °F 91% 30.19 in 10.0 mi Calm Calm - N/A   Scattered Clouds
5:35 AM 57.2 °F 54.3 °F 90% 30.20 in 10.0 mi Calm Calm - N/A   Clear
5:55 AM 56.3 °F 53.6 °F 91% 30.21 in 10.0 mi Calm Calm - N/A   Scattered Clouds
6:15 AM 57.0 °F 54.3 °F 91% 30.21 in 10.0 mi Calm Calm - N/A   Scattered Clouds
6:35 AM 57.2 °F 54.5 °F 91% 30.21 in 10.0 mi Calm Calm - N/A   Mostly Cloudy
6:55 AM 57.2 °F 54.5 °F 91% 30.22 in 10.0 mi Calm Calm - N/A   Overcast
7:15 AM 57.9 °F 55.2 °F 91% 30.22 in 10.0 mi Calm Calm - N/A   Overcast
7:35 AM 59.0 °F 56.1 °F 90% 30.23 in 10.0 mi Calm Calm - N/A   Overcast
7:55 AM 60.8 °F 55.9 °F 84% 30.23 in 10.0 mi Calm Calm - N/A   Overcast
8:15 AM 62.6 °F 54.5 °F 75% 30.24 in 10.0 mi Calm Calm - N/A   Overcast
8:35 AM 63.0 °F 54.7 °F 74% 30.24 in 10.0 mi East 4.6 mph - N/A   Overcast
8:55 AM 63.7 °F 54.5 °F 72% 30.24 in 10.0 mi East 5.8 mph - N/A   Overcast
9:15 AM 64.4 °F 54.9 °F 71% 30.24 in 10.0 mi East 5.8 mph - N/A   Overcast
9:35 AM 65.3 °F 54.5 °F 68% 30.24 in 10.0 mi ENE 4.6 mph - N/A   Overcast
9:55 AM 65.5 °F 53.8 °F 66% 30.25 in 10.0 mi East 4.6 mph - N/A   Overcast
10:15 AM 65.7 °F 54.1 °F 66% 30.25 in 10.0 mi ENE 5.8 mph - N/A   Overcast
10:35 AM 66.2 °F 54.3 °F 65% 30.26 in 10.0 mi East 11.5 mph - N/A   Overcast
10:55 AM 67.3 °F 55.0 °F 65% 30.26 in 5.0 mi East 5.8 mph - N/A   Haze
11:15 AM 67.6 °F 55.4 °F 65% 30.26 in 10.0 mi East 6.9 mph - N/A   Overcast
11:35 AM 69.3 °F 56.3 °F 63% 30.25 in 10.0 mi ENE 6.9 mph - N/A   Overcast
11:55 AM 70.0 °F 56.3 °F 62% 30.25 in 10.0 mi ENE 6.9 mph - N/A   Overcast
12:15 PM 70.0 °F 56.8 °F 63% 30.24 in 10.0 mi NNE 4.6 mph - N/A   Overcast
12:35 PM 70.0 °F 56.3 °F 62% 30.24 in 10.0 mi ENE 4.6 mph - N/A   Overcast
12:55 PM 69.8 °F 55.4 °F 60% 30.24 in 10.0 mi East 6.9 mph - N/A   Overcast
1:15 PM 70.3 °F 55.4 °F 59% 30.23 in 10.0 mi ENE 4.6 mph - N/A   Overcast
1:35 PM 71.1 °F 55.9 °F 59% 30.22 in 10.0 mi East 4.6 mph - N/A   Overcast
1:55 PM 70.2 °F 56.1 °F 61% 30.23 in 10.0 mi East 4.6 mph - N/A   Overcast
2:15 PM 71.2 °F 56.8 °F 60% 30.22 in 10.0 mi SSE 3.5 mph - N/A   Overcast
2:35 PM 71.1 °F 57.7 °F 63% 30.20 in 10.0 mi NE 3.5 mph - N/A   Overcast
2:55 PM 72.5 °F 57.6 °F 59% 30.20 in 10.0 mi ENE 3.5 mph - N/A   Overcast
3:15 PM 72.5 °F 57.0 °F 58% 30.19 in 10.0 mi NE 3.5 mph - N/A   Mostly Cloudy
3:35 PM 70.7 °F 56.3 °F 60% 30.19 in 10.0 mi Calm Calm - N/A   Overcast
3:55 PM 72.5 °F 57.9 °F 60% 30.19 in 10.0 mi East 3.5 mph - N/A   Scattered Clouds
4:15 PM 72.7 °F 56.5 °F 57% 30.18 in 10.0 mi Calm Calm - N/A   Clear
4:35 PM 72.9 °F 57.4 °F 58% 30.17 in 10.0 mi East 8.1 mph - N/A   Clear
4:55 PM 71.8 °F 55.9 °F 57% 30.17 in 10.0 mi ESE 5.8 mph - N/A   Scattered Clouds
5:15 PM 73.6 °F 56.5 °F 55% 30.18 in 10.0 mi East 5.8 mph - N/A   Clear
5:35 PM 72.5 °F 56.5 °F 57% 30.18 in 10.0 mi SE 4.6 mph - N/A   Scattered Clouds
5:55 PM 72.7 °F 55.8 °F 55% 30.18 in 10.0 mi East 6.9 mph - N/A   Scattered Clouds
6:15 PM 71.1 °F 55.2 °F 57% 30.19 in 10.0 mi SE 4.6 mph - N/A   Clear
6:35 PM 72.5 °F 55.9 °F 56% 30.18 in 10.0 mi East 5.8 mph - N/A   Scattered Clouds
6:55 PM 71.4 °F 55.8 °F 58% 30.18 in 10.0 mi SE 5.8 mph - N/A   Mostly Cloudy
7:15 PM 70.7 °F 55.8 °F 59% 30.18 in 10.0 mi East 4.6 mph - N/A   Mostly Cloudy
7:35 PM 69.8 °F 56.8 °F 63% 30.19 in 10.0 mi ESE 3.5 mph - N/A   Scattered Clouds
7:55 PM 67.8 °F 57.4 °F 69% 30.19 in 10.0 mi Calm Calm - N/A   Scattered Clouds
8:15 PM 65.5 °F 57.4 °F 75% 30.20 in 10.0 mi Calm Calm - N/A   Scattered Clouds
8:35 PM 65.3 °F 57.6 °F 76% 30.20 in 10.0 mi Calm Calm - N/A   Clear
8:55 PM 62.8 °F 57.4 °F 82% 30.21 in 10.0 mi Calm Calm - N/A   Clear
9:15 PM 61.9 °F 57.7 °F 86% 30.21 in 10.0 mi Calm Calm - N/A   Clear
9:35 PM 61.9 °F 56.8 °F 84% 30.21 in 10.0 mi Calm Calm - N/A   Clear
9:55 PM 61.0 °F 56.5 °F 85% 30.22 in 10.0 mi Calm Calm - N/A   Clear
10:15 PM 60.1 °F 56.1 °F 87% 30.22 in 10.0 mi Calm Calm - N/A   Clear
10:35 PM 60.8 °F 56.3 °F 85% 30.22 in 10.0 mi Calm Calm - N/A   Clear
10:55 PM 59.7 °F 55.8 °F 87% 30.22 in 10.0 mi Calm Calm - N/A   Clear
11:15 PM 59.9 °F 55.8 °F 86% 30.22 in 10.0 mi Calm Calm - N/A   Clear
11:35 PM 58.8 °F 55.2 °F 88% 30.22 in 10.0 mi Calm Calm - N/A   Clear
11:55 PM 57.4 °F 54.5 °F 90% 30.23 in 10.0 mi Calm Calm - N/A   Clear